TimeCST,TemperatureF,Dew PointF,Humidity,Sea Level PressureIn,VisibilityMPH,Wind Direction,Wind SpeedMPH,Gust SpeedMPH,PrecipitationIn,Events,Conditions,WindDirDegrees,DateUTC
12:52 AM,9.0,6.1,88,29.89,10.0,ENE,6.9,-,N/A,,Clear,70,2013-02-23 06:52:00
1:52 AM,9.0,6.1,88,29.88,10.0,NE,8.1,-,N/A,,Clear,50,2013-02-23 07:52:00
2:52 AM,7.0,3.9,87,29.86,10.0,NE,8.1,-,N/A,,Clear,50,2013-02-23 08:52:00
3:52 AM,7.0,3.9,87,29.84,10.0,NE,5.8,-,N/A,,Clear,50,2013-02-23 09:52:00
4:52 AM,7.0,3.9,87,29.83,10.0,ENE,8.1,-,N/A,,Clear,60,2013-02-23 10:52:00
5:52 AM,7.0,3.9,87,29.84,10.0,NE,5.8,-,N/A,,Clear,50,2013-02-23 11:52:00
6:52 AM,3.9,1.0,88,29.86,10.0,ENE,9.2,-,N/A,,Clear,60,2013-02-23 12:52:00
7:52 AM,3.9,1.0,88,29.86,10.0,ENE,8.1,-,N/A,,Clear,60,2013-02-23 13:52:00
8:52 AM,8.1,5.0,87,29.86,10.0,ENE,5.8,-,N/A,,Clear,60,2013-02-23 14:52:00
9:52 AM,12.9,10.0,88,29.85,10.0,NE,3.5,-,N/A,,Clear,50,2013-02-23 15:52:00
10:52 AM,19.0,15.1,85,29.84,10.0,ESE,4.6,-,N/A,,Clear,120,2013-02-23 16:52:00
11:52 AM,25.0,18.0,75,29.83,10.0,ESE,5.8,-,N/A,,Clear,120,2013-02-23 17:52:00
12:52 PM,30.0,21.0,69,29.81,10.0,SSE,6.9,-,N/A,,Clear,150,2013-02-23 18:52:00
1:52 PM,33.1,23.0,66,29.79,10.0,SSE,5.8,-,N/A,,Clear,150,2013-02-23 19:52:00
2:52 PM,36.0,25.0,64,29.78,10.0,SE,8.1,-,N/A,,Clear,140,2013-02-23 20:52:00
3:52 PM,37.9,26.1,62,29.78,10.0,South,8.1,-,N/A,,Clear,170,2013-02-23 21:52:00
4:52 PM,37.0,27.0,67,29.78,10.0,SE,9.2,-,N/A,,Clear,130,2013-02-23 22:52:00
5:52 PM,32.0,26.1,79,29.81,10.0,ESE,6.9,-,N/A,,Clear,110,2013-02-23 23:52:00
6:52 PM,28.9,24.1,82,29.83,10.0,East,5.8,-,N/A,,Clear,100,2013-02-24 00:52:00
7:52 PM,28.9,24.1,82,29.86,10.0,ESE,6.9,-,N/A,,Clear,110,2013-02-24 01:52:00
8:52 PM,27.0,23.0,85,29.87,10.0,SE,8.1,-,N/A,,Clear,130,2013-02-24 02:52:00
9:52 PM,27.0,21.9,81,29.88,10.0,ESE,6.9,-,N/A,,Overcast,120,2013-02-24 03:52:00
10:52 PM,25.0,21.0,85,29.88,10.0,SE,8.1,-,N/A,,Overcast,130,2013-02-24 04:52:00
11:52 PM,24.1,19.9,84,29.89,10.0,SSE,6.9,-,N/A,,Overcast,150,2013-02-24 05:52:00